Simultaneous Nadir Overpasses (SNOs) Predictions

Prediction of SNOs between AQUA and NOAA-19 Satellite Orbit:

Table of predicted SNOs for the next 14.0 days since TLE Epoch: 12/17/2022
Index Date (AQUA) Time (AQUA) Lat,Lon (AQUA) SZA (AQUA ) Date (NOAA-19) Time (NOAA-19) Lat,Lon (NOAA-19) SZA (NOAA-19 ) Distance(km) Time Diff (sec)
1 12/17/2022 11:09:22 76.95, -0.17 100.49 12/17/2022 11:08:13 76.96, -0.23 100.52 2.01 69
2 12/17/2022 11:58:49 -77.03, 167.17 79.42 12/17/2022 11:59:17 -77.02, 167.26 79.44 2.53 28
3 12/19/2022 16:42:12 -76.97, 96.55 79.42 12/19/2022 16:41:04 -76.96, 96.65 79.41 2.72 68
4 12/19/2022 17:31:39 77.01, -95.97 100.64 12/19/2022 17:31:57 77.00, -95.90 100.62 2.13 18
5 12/21/2022 22:14:59 76.84,-166.17 100.47 12/21/2022 22:13:48 76.77,-167.30 100.47 29.99 71
6 12/21/2022 23:04:28 -77.01, 0.84 79.34 12/21/2022 23:04:48 -77.01, 1.00 79.35 3.81 20
7 12/24/2022 03:47:49 -76.91, -69.61 79.46 12/24/2022 03:46:36 -76.90, -69.85 79.44 6.23 73
8 12/24/2022 04:37:16 76.96, 97.85 100.60 12/24/2022 04:37:28 76.97, 97.72 100.61 3.49 12
9 12/26/2022 09:20:30 76.55, 28.48 100.09 12/26/2022 09:19:25 76.47, 25.23 100.18 84.91 65
10 12/26/2022 10:10:04 -76.96,-165.32 79.46 12/26/2022 10:10:19 -76.98,-165.38 79.43 2.82 15
11 12/28/2022 14:53:21 -76.72, 124.73 79.82 12/28/2022 14:52:12 -76.64, 122.81 79.78 49.81 69
12 12/28/2022 15:42:52 76.96, -68.51 100.46 12/28/2022 15:42:58 76.96, -68.55 100.47 1.01 6
13 12/30/2022 21:15:39 -76.95, 28.33 79.67 12/30/2022 21:15:49 -76.96, 28.30 79.67 0.88 10



Historial Predications of SNOs between AQUA and NOAA-19
